Home > Weather > Feldbach > Past weeks

Flag for Austria Weather for the Past 2 Weeks in Feldbach, Styria, Austria

Now
50 °F

Light rain. Overcast.


Feels Like: 46 °F
Forecast: 49 / 64 °F
Wind: 9 mph from North

Location: Graz-Thalerhof-Flughafen

Current Time: May 2, 2016 at 2:16:28 AM

Latest Report: May 2, 2016 at 1:20 AM


Visibility: N/A

Pressure: 29.98 "Hg

Humidity: 94%

Dew Point: 48 °F

Location of FeldbachLocation

Historic Weather in Feldbach — Graph

°F

Feldbach Temperature Yesterday

Maximum temperature yesterday: 52 °F (at 11:50 AM)
Minimum temperature yesterday: 45 °F (at 12:20 AM)
Average temperature yesterday: 50 °F

High & Low Weather Summary for the Past Weeks

 TemperatureHumidityPressure
High73 °F (Apr 17, 12:20 PM)100% (Apr 19, 2:50 AM)30.36 "Hg (Apr 19, 2:50 AM)
Low27 °F (Apr 26, 4:50 AM)24% (Apr 25, 5:20 PM)29.56 "Hg (Apr 23, 4:50 PM)
Average49 °F67%29.95 "Hg
* Reported Apr 17 12:20 AM — May 2 12:20 AM, Feldbach, Weather by CustomWeather, © 2016

Note: Actual official high and low records may vary slightly from our data, if they occured in-between our weather recording intervals... More about our weather records

Advertising

Feldbach Weather History for the Previous 24 Hours

Scroll right to see more
 ConditionsComfort  
Time TempWeatherWind HumidityBarometerVisibility
12:20 AM
Mon, May 2
50 °FRain. Partly cloudy.2 mph94%29.98 "HgN/A
11:50 PM
Sun, May 1
50 °FRain. Partly cloudy.6 mph94%29.98 "HgN/A
10:50 PM50 °FLight rain. Mostly cloudy.10 mph94%30.01 "HgN/A
10:20 PM50 °FLight rain. Mostly cloudy.6 mph94%30.01 "HgN/A
9:50 PM50 °FRain. Mostly cloudy.3 mph94%30.01 "HgN/A
9:20 PM50 °FRain. Mostly cloudy.5 mph94%30.01 "HgN/A
8:50 PM50 °FLight rain. Partly sunny.6 mph94%30.01 "HgN/A
8:20 PM50 °FLight rain. Partly sunny.3 mph94%30.01 "HgN/A
7:50 PM50 °FRain. Partly sunny.6 mph94%29.98 "HgN/A
7:20 PM52 °FRain. Partly sunny.7 mph88%29.98 "HgN/A
6:50 PM52 °FLight rain. Partly sunny.6 mph88%29.98 "HgN/A
6:20 PM52 °FLight rain. Broken clouds.5 mph88%29.98 "HgN/A
5:50 PM52 °FRain. Broken clouds.5 mph94%29.98 "Hg6 mi
5:20 PM52 °FLight rain. Partly sunny.8 mph88%29.95 "HgN/A
4:50 PM52 °FPartly sunny.12 mph88%29.95 "HgN/A
4:20 PM52 °FBroken clouds.12 mph94%29.95 "HgN/A
3:50 PM52 °FLight rain. Broken clouds.9 mph94%29.98 "Hg5 mi
3:20 PM52 °FRain. Broken clouds.10 mph94%29.95 "Hg5 mi
2:50 PM52 °FLight rain. Broken clouds.13 mph94%29.95 "Hg5 mi
2:20 PM52 °FLight rain. Broken clouds.9 mph94%29.95 "Hg4 mi
1:50 PM52 °FLight rain. Broken clouds.9 mph88%29.95 "Hg4 mi
1:20 PM50 °FLight rain. Broken clouds.8 mph94%29.98 "Hg5 mi
12:50 PM52 °FRain. Broken clouds.10 mph88%29.98 "Hg3 mi
12:20 PM52 °FBroken clouds.9 mph88%29.98 "Hg5 mi
11:50 AM52 °FLight rain. Partly sunny.9 mph88%29.98 "Hg4 mi
11:20 AM50 °FLight rain. Broken clouds.7 mph88%29.98 "Hg4 mi
10:50 AM50 °FRain. More clouds than sun.6 mph88%29.98 "Hg4 mi
10:20 AM50 °FLight rain. Overcast.7 mph88%29.98 "Hg4 mi
9:50 AM50 °FLight rain. Overcast.8 mph82%29.98 "HgN/A
9:20 AM50 °FLight rain. More clouds than sun.7 mph82%29.98 "HgN/A
8:50 AM50 °FMore clouds than sun.5 mph82%29.98 "HgN/A
8:20 AM50 °FOvercast.5 mph82%29.98 "HgN/A
7:50 AM50 °FOvercast.3 mph82%29.98 "HgN/A
7:20 AM48 °FOvercast.1 mph87%29.98 "HgN/A
6:20 AM48 °FOvercast.2 mph82%29.98 "HgN/A
5:50 AM48 °FOvercast.1 mph82%29.98 "HgN/A
5:20 AM48 °FPassing clouds.3 mph87%29.98 "HgN/A
4:20 AM48 °FPartly cloudy.1 mph82%29.98 "HgN/A
3:50 AM48 °FPartly cloudy.2 mph87%29.98 "HgN/A
3:20 AM48 °FPassing clouds.2 mph87%29.98 "HgN/A
2:50 AM46 °FPassing clouds.2 mph87%30.01 "HgN/A
2:20 AM46 °FOvercast.5 mph87%30.01 "HgN/A
Weather by CustomWeather, © 2016

See weather overviewHow to use our weather pages